Civil Air Patrol

Glenn L. Martin Composite Squadron

Welcome to the Glenn L. Martin Composite Squadron Civil Air Patrol

 

We are the official auxiliary of the United States Air Force.

Our 3 main missions are cadet programs, aerospace education and emergency services.

Click each link to learn more about each mission.

 

Here is a short video from National Headquarters about CAP

 

 


 

 
Current METAR for KMTN (Martin State Airport)

KMTN 111945Z 24004KT 10SM SKC 07/M08 A3004

 

Current TAF for KBWI (Baltimore Washington International)

TAF AMD KBWI 112041Z 1121/1224 29006KT P6SM SKC FM120600 28005KT P6SM FEW045 FM121100 29005KT P6SM FEW250